Weather in Hartford

United States     41°45′55″N   72°40′10″W
temp.,
°C
wind,
m/s
gust,
m/s
humid.,
%
clouds,
%
prec.,
mm/h
press.,
hPa
HPBL,
m
26 may, thu
thu2623:00+12s2769100 0.0 1029315
02:00+10ssw1570100 0.0 1028177
05:00+9s1376100 0.0 1028118
08:00+13s2565100 0.0 1028479
11:00+19s4739100 0.0 10261152
14:00+21s5737100 0.0 10241372
17:00+21s58475 0.0 10221281
20:00+17s4107130 0.0 1021788
27 may, fri
fri2723:00+16ssw31282100 0.0 1020629
02:00+17ssw31385100 0.0 1018589
05:00+17s31295100 0.1 1017596
08:00+18s31297100 0.3 1016648
11:00+22ssw497896 0.0 1015868
14:00+25ssw6963100 0.1 10121315
17:00+24ssw5973100 0.5 10111044
20:00+19s3898100 3.0 1011378
28 may, sat
sat2823:00+18ssw41397100 0.2 1011849
02:00+18ssw41298100 0.7 1009731
05:00+17s41198100 0.4 1008684
08:00+17s41098100 0.7 1007714
11:00+19ssw3692100 0.0 1007539
14:00+24ssw4763100 0.2 10051392
17:00+26ssw464578 0.2 10042151
20:00+18nnw269213 3.3 1007164
29 may, sun
sun2923:00+16nnw28944 0.1 1009220
02:00+15nw24935 0.1 101178
05:00+13nw11955 0.0 101323
08:00+17nnw25696 0.0 1015332
11:00+23n23354 0.0 10161524
14:00+27n122898 0.0 10151950
17:00+27sw122816 0.0 10142155
20:00+21w235323 0.0 101663
30 may, mon
mon3023:00+17ssw226399 0.0 101848
02:00+16sw1171100 0.0 101821
05:00+15ssw1178100 0.0 101827
08:00+21w256060 0.0 1019322
11:00+27wsw354564 0.0 10171157
14:00+31wsw463483 0.0 10152024
17:00+31wsw483898 0.0 10132310
20:00+26sw1158100 0.0 101328